RESURS P2 (40360 NORAD) Tracking and Keplerian Element Data

This shows tracking and keplerian element data for the satellite.

Feedback or suggestion? Click here.




ElementValue
Catalog40360
NameRESURS P2
Epoch Orbit37771
Epoch Day269.19706063
Epoch Year2021
RAAN354.6083
Inclination97.2249
Eccentricity0.0008398
Argument of Perigee326.9218
Mean Anonmoly86.5729
Mean Motion15.34521594
Decay Rate1.635E-05
L11 40360U 14087A 21269.19706063 .00001635 00000-0 51153-4 0 9999
L22 40360 97.2249 354.6083 0008398 326.9218 86.5729 15.34521594377717

Live tracking and technical data element details for RESURS P2 (NORAD 40360). RESURS P2 can be tracked NOW for your location showing map with azimuth and elevation plus other details from your city location.

Track the satellite on the map from your city or location and see movement details for azimuth, elevation, latitude, longitude, range, height, and movement on the map or in text.







IsCatalogInMostPopularTable: catalog: 40360, numindb: 546
Update: records affected: 1



GetName: 40360 RESURS P2

Hit Count: updated at: Mon, 27 Sep 2021 00:56:54 GMT